Regional Weather Roundup
Issued by NWS

Home | Current Version | Previous Version | Graphics & Text | Print | Product List | Glossary On
Versions: 1 2 3 4 5 6 7 8 9 10 11 12 13 14 15 16 17 18 19 20 21 22 23 24 25 26 27 28 29 30 31 32 33 34 35 36 37 38 39 40 41 42 43 44 45 46 47 48 49 50
208
ASUS43 KLOT 280504
RWRIL

ILLINOIS REGIONAL WEATHER ROUNDUP
NATIONAL WEATHER SERVICE CHICAGO/ROMEOVILLE IL
1200 AM CDT SUN MAY 28 2017

NOTE: "FAIR" INDICATES FEW OR NO CLOUDS BELOW 12,000 FEET WITH NO
SIGNIFICANT WEATHER AND/OR OBSTRUCTIONS TO VISIBILITY.

* THESE STATIONS ARE NOT UNDER NWS QUALITY CONTROL. THEY ALSO MAY NOT
  REPORT WEATHER SUCH AS PRECIPITATION OR FOG.

ILZ001-002-007-009-015-016-024-280600-
NORTHWEST ILLINOIS

CITY           SKY/WX    TMP DP  RH WIND       PRES   REMARKS
MOLINE         CLOUDY    63  60  90 NW3       29.80F
STERLING*      CLOUDY    64  62  93 CALM      29.81F
SAVANNA*       HAZE      64  59  84 CALM      29.81F VSB 1
$$

ILZ003-004-008-010-011-017-018-280600-
NORTH CENTRAL ILLINOIS

CITY           SKY/WX    TMP DP  RH WIND       PRES   REMARKS
ROCKFORD       CLOUDY    67  59  75 E3        29.83F
FREEPORT*      CLOUDY    62  58  90 CALM      29.84F
ROCHELLE*      CLOUDY    65  60  86 SE3       29.83F
DE KALB*       CLOUDY    64  58  82 E5        29.83F
PERU*          CLOUDY    66  61  85 E9        29.80F
$$

ILZ005-006-012>014-019>023-280600-
NORTHEAST ILLINOIS

CITY           SKY/WX    TMP DP  RH WIND       PRES   REMARKS
CHICAGO-OHARE  CLOUDY    64  53  67 CALM      29.82F
CHICAGO-MIDWAY CLOUDY    62  53  72 CALM      29.82F
AURORA         CLOUDY    64  56  75 E3        29.83F
LANSING*       CLOUDY    60  56  87 CALM      29.84S
JOLIET*        CLOUDY    64  59  83 CALM      29.83F
WAUKEGAN       CLOUDY    59  51  75 CALM      29.82F
DUPAGE AIRPORT CLOUDY    64  57  78 CALM      29.82F
KANKAKEE*      MOCLDY    63  62  96 CALM      29.83F
WHEELING       CLOUDY    61  54  77 E5        29.83F
MORRIS*        CLOUDY    64  60  86 CALM      29.81F
ROMEOVILLE*    CLOUDY    60  58  94 E3        29.83S
NORTHERLY ISL    N/A     57  49  74 CALM        N/A
$$

LMZ740>746-280600-
SOUTHERN LAKE MICHIGAN

STATION/POSITION SKY/WX   TEMP    WIND        PRES    VSBY  WAVE
                          AIR SEA DIR/SP/G                  HT/PER
                          (F)     (DEG/KT/KT) (MB)    (MI)  (FT/S)
SOUTHERN BUOY              53 50  100/  8/  8 1010.6          0
WILMETTE HARBOR            53 54                N/A           0
HARRISON CRIB              58     180/  4/  4   N/A
BURNHAM HARBOR             58      CALM  /  2   N/A
CALUMET HARBOR             57      10/  3/  3 1009.7F
BURNS HARBOR               62      90/  4/  5 1010.5F
MICHIGAN CITY              60      40/  4/  5   N/A
MICHIGAN CITY 6N           57 56   70/  4/  6   N/A           0
ST. JOSEPH                 60 59  100/  6/  6 1010.1F         0
$$

ILZ025>027-034>036-040-047-049-050-058-095>099-280600-
WEST-CENTRAL ILLINOIS

CITY           SKY/WX    TMP DP  RH WIND       PRES   REMARKS
QUINCY         CLOUDY    67  64  90 W5        29.80S
GALESBURG*     CLOUDY    63  61  92 NE7       29.79F
MACOMB*        CLOUDY    65  63  91 N7        29.81S
JACKSONVILLE*  CLOUDY    64  62  93 W3        29.79R
PITTSFIELD*    CLOUDY    67  62  82 W6        29.80R
$$

ILZ028>032-037-038-041>044-048-051>054-059>061-280600-
CENTRAL ILLINOIS

CITY           SKY/WX    TMP DP  RH WIND       PRES   REMARKS
PONTIAC        CLOUDY    67  67  98 E8        29.80F
BLOOMINGTON    CLOUDY    65  62  90 E9        29.79F
DECATUR        MOCLDY    67  64  90 E8        29.77F
PEORIA         CLOUDY    67  63  87 E5        29.78F
LACON*         CLOUDY    66  64  91 E6        29.78F
LINCOLN*       MOCLDY    69  65  85 E5        29.78F
SPRINGFIELD    CLOUDY    68  62  81 SW3       29.78R
TAYLORVILLE    CLOUDY    64  61  88 S5        29.77S
$$

ILZ033-039-045-046-055>057-062-063-280600-
EAST-CENTRAL ILLINOIS

CITY           SKY/WX    TMP DP  RH WIND       PRES   REMARKS
CHAMPAIGN      CLOUDY    65  62  90 E8        29.79F
RANTOUL*       CLOUDY    67  64  91 E7        29.79F
MATTOON        CLOUDY    68  66  93 E5        29.76F
PARIS*         CLOUDY    65  64  97 NE6       29.79F
$$

ILZ079-100>102-280600-
SOUTHWEST ILLINOIS

CITY           SKY/WX    TMP DP  RH WIND       PRES   REMARKS
ALTON          CLOUDY    62  61  96 CALM      29.80S
BELLEVILLE     CLOUDY    65  61  87 N3        29.81R
CAHOKIA*       CLOUDY    65  61  87 NW5       29.80R
SPARTA*        CLOUDY    67  60  77 NW9G21    29.81R
$$

ILZ064>066-069>071-074>076-080>082-084>086-088>090-092>094-280600-
SOUTH-CENTRAL ILLINOIS

CITY           SKY/WX    TMP DP  RH WIND       PRES   REMARKS
CARBONDALE     LGT RAIN  64  63  96 S25G33    29.76F
CAIRO*         RAIN      64  64  99 NE7       29.85F
EFFINGHAM*     CLOUDY    65  65 100 CALM      29.76F
MARION         LGT RAIN  66  66 100 SW15      29.83R
MT. VERNON       N/A     66  61  84 NE5       29.73F
CENTRALIA*     CLOUDY    66  61  85 NW12      29.78S
SALEM*         CLOUDY    67  60  78 CALM      29.76F
$$

ILZ067-068-072-073-078-083-087-091-280600-
SOUTHEAST ILLINOIS

CITY           SKY/WX    TMP DP  RH WIND       PRES   REMARKS
LAWRENCEVILLE  CLOUDY    68  65  90 SE6       29.79S
FLORA*         CLOUDY    67  64  91 CALM      29.76F
FAIRFIELD*     CLOUDY    66  61  82 CALM      29.76F
HARRISBURG*    LGT RAIN  65  62  87 S12G18    29.83R
ROBINSON*      CLOUDY    68  66  94 E3        29.79F
CARMI*         CLOUDY    70  59  68 SW16G25   29.79S
$$

ABBREVIATIONS USED IN REMARKS
   TC - TEMPERATURE IN CELSIUS
  WCI - WIND CHILL INDEX
   HX - HEAT INDEX
  VSB - VISIBILITY
$$





USA.gov is the U.S. government's official web portal to all federal, state and local government web resources and services.